| time (UTC) | temp F | wind direction | speed MPH | gust MPH | rain 1hr in | rain 24hr in | rain mn in | humidity % | barometer mb |
| 20260902154528 | 85 | 284 | 2.0 | 9.0 | 0.00 | 0.00 | 0.00 | 82 | 1014.0 |
| 20260902153014 | 85 | 212 | 4.0 | 11.0 | 0.00 | 0.00 | 0.00 | 83 | 1013.9 |
| 20260902151509 | 83 | 277 | 6.0 | 11.0 | 0.00 | 0.00 | 0.00 | 83 | 1013.8 |
| 20260902150038 | 82 | 323 | 5.0 | 9.0 | 0.00 | 0.00 | 0.00 | 83 | 1014.0 |
| 20260902144538 | 81 | 283 | 2.0 | 7.0 | 0.00 | 0.00 | 0.00 | 83 | 1014.0 |
| 20260902143055 | 79 | 338 | 5.0 | 9.0 | 0.00 | 0.00 | 0.00 | 83 | 1014.1 |
| 20260902141523 | 78 | 325 | 1.0 | 4.0 | 0.00 | 0.00 | 0.00 | 82 | 1014.0 |
| 20260902140006 | 77 | 323 | 1.0 | 4.0 | 0.00 | 0.00 | 0.00 | 82 | 1014.1 |
| 20260902134514 | 77 | 325 | 2.0 | 4.0 | 0.00 | 0.00 | 0.00 | 81 | 1014.1 |
| 20260902133005 | 77 | 326 | 0.0 | 4.0 | 0.00 | 0.00 | 0.00 | 81 | 1014.1 |
| 20260902131545 | 76 | 303 | 1.0 | 4.0 | 0.00 | 0.00 | 0.00 | 81 | 1014.0 |
| 20260902130024 | 76 | 306 | 2.0 | 4.0 | 0.00 | 0.00 | 0.00 | 81 | 1013.6 |
| 20260902124610 | 76 | 269 | 3.0 | 6.0 | 0.00 | 0.00 | 0.00 | 80 | 1013.4 |
| 20260902123042 | 75 | 272 | 2.0 | 4.0 | 0.00 | 0.00 | 0.00 | 80 | 1013.2 |
| 20260902121604 | 75 | 256 | 2.0 | 4.0 | 0.00 | 0.00 | 0.00 | 80 | 1013.1 |
| 20260902120018 | 75 | 255 | 2.0 | 6.0 | 0.00 | 0.00 | 0.00 | 79 | 1013.1 |
| 20260902114521 | 75 | 258 | 2.0 | 4.0 | 0.00 | 0.00 | 0.00 | 79 | 1013.0 |
| 20260902113011 | 75 | 325 | 2.0 | 4.0 | 0.00 | 0.00 | 0.00 | 79 | 1013.0 |
| 20260902031501 | 82 | 90 | 0.0 | 0.0 | 0.00 | 0.00 | 0.00 | 62 | 1013.1 |
| 20260902030040 | 82 | 90 | 0.0 | 2.0 | 0.00 | 0.00 | 0.00 | 62 | 1013.0 |
| 20260902024602 | 82 | 90 | 1.0 | 3.0 | 0.00 | 0.00 | 0.00 | 61 | 1012.9 |
| 20260902023046 | 83 | 90 | 1.0 | 2.0 | 0.00 | 0.00 | 0.00 | 60 | 1012.7 |
| 20260902021525 | 83 | 90 | 0.0 | 1.0 | 0.00 | 0.00 | 0.00 | 59 | 1012.5 |
| 20260902020002 | 84 | 90 | 1.0 | 4.0 | 0.00 | 0.00 | 0.00 | 59 | 1012.2 |
| 20260902014549 | 84 | 95 | 2.0 | 6.0 | 0.00 | 0.00 | 0.00 | 58 | 1012.1 |
| 20260902013025 | 85 | 129 | 4.0 | 7.0 | 0.00 | 0.00 | 0.00 | 57 | 1012.2 |
| 20260902011604 | 86 | 94 | 4.0 | 9.0 | 0.00 | 0.00 | 0.00 | 56 | 1012.1 |
| 20260902010109 | 86 | 54 | 5.0 | 12.0 | 0.00 | 0.00 | 0.00 | 55 | 1012.2 |
| 20260902004532 | 87 | 97 | 5.0 | 16.0 | 0.00 | 0.00 | 0.00 | 54 | 1012.0 |
| 20260902003029 | 88 | 149 | 5.0 | 13.0 | 0.00 | 0.00 | 0.00 | 53 | 1011.8 |
| 20260902001517 | 89 | 82 | 8.0 | 18.0 | 0.00 | 0.00 | 0.00 | 52 | 1011.7 |
| 20260902000043 | 91 | 111 | 9.0 | 17.0 | 0.00 | 0.00 | 0.00 | 51 | 1011.5 |
| 20260901234559 | 92 | 88 | 12.0 | 21.0 | 0.00 | 0.00 | 0.00 | 51 | 1011.4 |
| 20260901233034 | 94 | 96 | 8.0 | 15.0 | 0.00 | 0.00 | 0.00 | 51 | 1011.2 |
| 20260901231541 | 95 | 96 | 5.0 | 11.0 | 0.00 | 0.00 | 0.00 | 52 | 1011.2 |
| 20260901230036 | 94 | 105 | 6.0 | 11.0 | 0.00 | 0.00 | 0.00 | 52 | 1011.2 |
| 20260901224539 | 94 | 101 | 5.0 | 11.0 | 0.00 | 0.00 | 0.00 | 52 | 1011.3 |
| 20260901223044 | 94 | 110 | 2.0 | 7.0 | 0.00 | 0.00 | 0.00 | 52 | 1011.4 |
| 20260901221529 | 94 | 65 | 2.0 | 7.0 | 0.00 | 0.00 | 0.00 | 52 | 1011.3 |
| 20260901220052 | 94 | 46 | 5.0 | 9.0 | 0.00 | 0.00 | 0.00 | 53 | 1011.4 |
| 20260901214519 | 94 | 57 | 5.0 | 12.0 | 0.00 | 0.00 | 0.00 | 53 | 1011.5 |
| 20260901213010 | 95 | 89 | 5.0 | 12.0 | 0.00 | 0.00 | 0.00 | 54 | 1011.5 |
| 20260901211612 | 96 | 83 | 8.0 | 15.0 | 0.00 | 0.00 | 0.00 | 54 | 1011.5 |
| 20260901210043 | 96 | 105 | 9.0 | 15.0 | 0.00 | 0.00 | 0.00 | 56 | 1011.7 |
| 20260901204558 | 96 | 355 | 2.0 | 13.0 | 0.00 | 0.00 | 0.00 | 57 | 1012.1 |
| 20260901203031 | 96 | 60 | 9.0 | 16.0 | 0.00 | 0.00 | 0.00 | 58 | 1012.2 |
| 20260901201554 | 96 | 59 | 8.0 | 16.0 | 0.00 | 0.00 | 0.00 | 59 | 1012.6 |
| 20260901200017 | 94 | 84 | 9.0 | 18.0 | 0.00 | 0.00 | 0.00 | 61 | 1012.6 |
| 20260901194554 | 94 | 68 | 5.0 | 10.0 | 0.00 | 0.00 | 0.00 | 62 | 1012.7 |
| 20260901193008 | 94 | 61 | 3.0 | 8.0 | 0.00 | 0.00 | 0.00 | 63 | 1012.8 |
| 20260901191549 | 93 | 89 | 9.0 | 13.0 | 0.00 | 0.00 | 0.00 | 65 | 1012.8 |
| 20260901190014 | 93 | 21 | 8.0 | 14.0 | 0.00 | 0.00 | 0.00 | 66 | 1013.0 |
| 20260901184613 | 92 | 76 | 5.0 | 10.0 | 0.00 | 0.00 | 0.00 | 67 | 1013.2 |
| 20260901183050 | 92 | 14 | 4.0 | 12.0 | 0.00 | 0.00 | 0.00 | 68 | 1013.6 |
| 20260901181518 | 92 | 19 | 5.0 | 12.0 | 0.00 | 0.00 | 0.00 | 69 | 1014.0 |
| 20260901180029 | 92 | 102 | 6.0 | 14.0 | 0.00 | 0.00 | 0.00 | 71 | 1014.2 |
| 20260901174545 | 91 | 60 | 8.0 | 14.0 | 0.00 | 0.00 | 0.00 | 73 | 1014.6 |
| 20260901173029 | 90 | 118 | 7.0 | 13.0 | 0.00 | 0.00 | 0.00 | 74 | 1014.7 |
| 20260901171556 | 90 | 36 | 6.0 | 11.0 | 0.00 | 0.00 | 0.00 | 74 | 1014.9 |
| 20260901170104 | 90 | 59 | 2.0 | 10.0 | 0.00 | 0.00 | 0.00 | 76 | 1015.1 |
| 20260901164603 | 89 | 106 | 4.0 | 14.0 | 0.00 | 0.00 | 0.00 | 77 | 1015.2 |
| 20260901163026 | 88 | 128 | 3.0 | 8.0 | 0.00 | 0.00 | 0.00 | 78 | 1015.3 |
| 20260901161548 | 88 | 133 | 0.0 | 9.0 | 0.00 | 0.00 | 0.00 | 79 | 1015.4 |
| 20260901160017 | 87 | 269 | 0.0 | 5.0 | 0.00 | 0.00 | 0.00 | 80 | 1015.5 |